Regional Weather Roundup
Issued by NWS Jackson, KY

Home | Current Version | Previous Version | Text Only | Print | Product List | Glossary Off
Versions: 1 2 3 4 5 6 7 8 9 10 11 12 13 14 15 16 17 18 19 20 21 22 23 24 25 26 27 28 29 30 31 32 33 34 35 36 37 38 39 40 41 42 43 44 45 46 47 48 49 50

000
ASUS43 KJKL 030410
RWRJKL

EAST KENTUCKY HOURLY WEATHER ROUNDUP
NATIONAL WEATHER SERVICE JACKSON KY
1200 AM EDT THU SEP 03 2015

NOTE: "FAIR" INDICATES FEW OR NO CLOUDS BELOW 12,000 FEET WITH
NO SIGNIFICANT WEATHER AND/OR OBSTRUCTIONS TO VISIBILITY.

* THESE REPORTS ARE NOT UNDER NWS QUALITY CONTROL AND MAY NOT
  REPORT WEATHER SUCH AS PRECIPITATION AND FOG.

KYZ079-080-083-085-087-088-110-112-115-119-120-030500
...EASTERN KENTUCKY...

CITY           SKY/WX    TMP DP  RH WIND       PRES   REMARKS
JACKSON        CLEAR     73  66  78 CALM      30.08S
LONDON         CLEAR     71  64  78 CALM      30.07S
SOMERSET*      CLEAR     68  68 100 CALM      30.07S
MONTICELLO*    PTCLDY    66  66 100 CALM      30.09R FOG
WILLIAMSBURG*  CLEAR     63  63 100 CALM      30.07
MIDDLESBORO*   MOCLDY    68  67  94 CALM      30.08F
HARLAN APT*      N/A     68  68 100 MISG      30.10S
HAZARD APT*    CLEAR     70  70 100 CALM      30.08S
BLACK MTN*       N/A     66  63  88 VRB10       N/A
PIKEVILLE APT* CLEAR     72  66  83 CALM      30.08F
BIG SANDY*     CLEAR     70  69  97 CALM      30.06F
MOREHEAD APT*  PTCLDY    72  66  83 S3        30.08S
$$

KYZ035-036-041-042-044-050-067-078-099-030500
...CENTRAL KENTUCKY...

CITY           SKY/WX    TMP DP  RH WIND       PRES   REMARKS
MT STERLING*   CLEAR     68  68 100 CALM      30.08S FOG
FLEMING/MASON* CLOUDY    72  70  94 CALM      30.06F
DANVILLE*      CLEAR     68  64  88 CALM      30.07S
RICHMOND*      CLEAR     72  66  83 CALM      30.06S
LEXINGTON      CLEAR     72  66  81 NE3       30.06S
FRANKFORT      CLEAR     71  67  87 CALM      30.04S
$$

KYZ091>093-OHZ055-061-077-WVZ005-015-034-035-042-030500
...SOUTHERN OHIO/WEST VIRGINIA...

CITY           SKY/WX    TMP DP  RH WIND       PRES   REMARKS
COVINGTON      PTCLDY    75  66  73 CALM      30.04F
COLUMBUS       CLOUDY    72  67  84 W5        30.03S
DAYTON         PTCLDY    73  69  87 S6        30.06R
WILMINGTON     CLEAR     69  64  84 CALM      30.04F
HUNTINGTON     CLEAR     70  69  97 CALM      30.04F FOG
CHARLESTON     CLEAR     70  67  90 CALM      30.04F
PINEVILLE*     CLEAR     66  66 100 MISG      30.14F FOG
BECKLEY        CLEAR     66  62  87 CALM      30.14R
BLUEFIELD      MOCLDY    69  61  75 CALM      30.16S
$$

VAZ002-007-008-TNZ017-027-036-066-071-030500
...SOUTHWEST VIRGINIA/EAST TENNESSEE...

CITY           SKY/WX    TMP DP  RH WIND       PRES   REMARKS
WISE*          CLEAR     70  59  68 N3        30.16F
JONESVILLE*    CLEAR     66  64  94 CALM      30.11S
ABINGDON*      CLEAR     68  62  81 CALM      30.11S
BRISTOL        PTCLDY    69  65  86 N3        30.08S
KNOXVILLE      CLOUDY    77  69  76 CALM      30.03F
OAK RIDGE      MOCLDY    75  71  87 CALM      30.05F
CROSSVILLE     MOCLDY    72  68  87 CALM      30.11S
NASHVILLE      MOCLDY    79  69  71 CALM      30.03S
$$

...KEY TO REMARKS...
VSB - VISIBILITY IN MILES
WCI - WIND CHILL INDEX
HX  - HEAT INDEX

$$


USA.gov is the U.S. government's official web portal to all federal, state and local government web resources and services.